COSMOS 1275 DEB

Satellite information

Favourite Embed

Satellite Type and Status

DEBRISIN ORBIT

Key statistics

Satellite COSMOS 1275 DEB at a glance.

Uptime

16103

Days in orbit

Revolutions

≈ 13.7

Per day

Orbit

LEO

Low Earth Orbit

Inclination

82.9

Latest

Satellite identification and parameters

Extended collection of information and parameters for COSMOS 1275 DEB.

Object identification

Identified? True

Debris? True

Object name: COSMOS 1275 DEB

International designator: 1981-053DK

Object number (NORAD): 12766

Object ID (CCSDS): 12766

Country: COMMONWEALTH OF INDEPENDENT STATES (CIS)

Current information (Y/N): Y

RCS size: SMALL

Orbital parameters

Period: 105.113 minutes

Inclination: 82.9485 deg

SMA: 7377.89 km

Apoapsis: 1073.133 km

Periapsis: 926.377 km

RAAN: 13.0844 deg

Eccentricy: 0.0099457

Argument of periapsis: 159.8592 deg

Mean anomaly: 230.1536 deg

Mean motion: 13.69949283 rev/day

Mean motion (dot): 0.00000661 rev/day2

B* drag term: 0.000711 1/REarth

Two-line elements (TLE)

Creation date: July 5, 2025, 5:45 p.m.

Reference frame: TEME

Reference center: EARTH

Epoch: July 5, 2025, 11:54 a.m. UTC

TLE line 0: 0 COSMOS 1275 DEB

TLE line 1: 1 12766U 81053DK 25186.49585062 .00000661 00000-0 71100-3 0 9995

TLE line 2: 2 12766 82.9485 13.0844 0099457 159.8592 230.1536 13.69949283184370

Live tracking on map

Real-time ground track for satellite COSMOS 1275 DEB.

In-orbit conjunctions

A list of the most updated potential collisions computed for object COSMOS 1275 DEB.

Target Orbit TCA Probability of collision Miss distance Type
FENGYUN 1C DEB SSO 2024-11-12 16:46:24 0.0001755167 454.0 (m) DEBRIS
SL-14 R/B LEO 2024-09-30 22:43:55 0.002217715 118.0 (m) ROCKET BODY
SL-24 R/B SSO 2024-06-05 10:25:44 0.0001131107 368.0 (m) ROCKET BODY

Associated space launch

Navigation satellite providing location information for the Tsiklon-B navigation system

COSMOS 1275 DEB was lifted into orbit during the mission ‘Kosmos-3M | Parus 27’, on board a Kosmos-3M space rocket.

The launch took place on June 4, 1981, 3:41 p.m. from 132/2.

For more information about the launch, click the button.

Launch to space Kosmos-3M | Parus 27
Kosmos-3M | Parus 27

Agency: N/A

Status: Launch Successful

Launch date: June 4, 1981, 3:41 p.m. UTC

Rocket: Kosmos-3M

Launch pad: 132/2

Location: Plesetsk Cosmodrome, Russian Federation

...

Latest news about this satellite

There are no fresh news available about this satellite. Check back as we update our databases every day.


Newsletter sign-up

Weekly statistics, charts and insights to help you stay on top of the space industry.